Location: Abades
(40.9165°N, 4.2694°W)
Time: 06:36:40
(UTC+00:00)

Daily predictions for brighter satellites

Satellite Brightness Start Highest point End
(mag) Time Altitude Azimuth Time Altitude Azimuth Time Altitude Azimuth
Cosmos 1943 3.2 17:38:12 10° NNW 17:43:52 69° ENE 17:49:29 10° SSE
Cosmos 1726 Rocket 4.2 17:40:57 10° NNE 17:44:55 33° ENE 17:48:53 10° SE
Meteor 1-24 Rocket 3.6 17:40:26 10° S 17:45:43 62° E 17:50:57 10° NNE
COSMOS 2455 3.2 17:40:36 10° S 17:46:19 47° ESE 17:52:03 10° NE
ERS-2 3.9 17:44:13 10° ENE 17:46:23 15° E 17:48:33 10° SE
BREEZE-M DEB (TANK) 3.6 17:50:44 10° WNW 17:53:14 56° SSW 17:59:54 10° SE
CZ-4 R/B 2.8 17:53:24 10° ESE 17:56:11 18° ENE 17:58:55 10° NNE
Cosmos 1315 Rocket 2.7 17:53:30 10° N 17:57:30 77° E 18:01:30 10° SSE
COSMO-SKYMED 1 2.9 17:59:54 10° NNE 18:04:05 45° E 18:08:14 10° S
Hubble Space Telescope 3.3 18:03:29 10° S 18:04:30 11° SSE 18:05:30 10° SSE
Cosmos 2279 Rocket 4.0 17:58:43 10° N 18:04:59 69° E 18:11:11 10° SSE
H-2A R/B 3.9 18:07:34 10° S 18:11:20 41° W 18:15:15 10° NNW
Okean-O 3.6 18:08:38 10° ESE 18:12:15 25° ENE 18:15:53 10° NNE
Cosmos 1844 Rocket 3.1 18:08:12 10° S 18:13:29 42° ESE 18:18:47 10° NE
CZ-2C R/B 3.4 18:08:37 10° SE 18:13:36 46° ENE 18:18:53 10° N
CZ-4B R/B 1.3 18:10:49 10° NNE 18:14:11 70° ESE 18:17:27 10° S
Okean O Rocket 2.2 18:10:36 10° S 18:14:59 62° WSW 18:19:24 10° NNW
Cosmos 1626 4.4 18:12:26 10° SW 18:15:34 26° WNW 18:18:44 10° NNW
H-2A R/B 2.8 18:12:04 10° ESE 18:16:14 28° ENE 18:20:29 10° N
Aureole 2 Rocket 2.5 18:14:17 10° S 18:17:06 41° ESE 18:19:29 14° NE
SMAP 4.4 18:13:37 10° S 18:18:02 43° W 18:22:29 10° NNW
Cosmos 1689 Rocket 3.2 18:20:01 20° ENE 18:20:50 23° E 18:23:10 10° SSE
CZ-4B R/B 4.2 18:17:59 10° S 18:23:20 51° W 18:28:48 10° NNW
Cosmos 773 Rocket 4.1 18:19:02 10° NNW 18:24:12 80° WSW 18:29:18 10° SSE
CZ-2D R/B 3.1 18:25:48 10° SSE 18:29:38 71° ENE 18:33:29 10° N
Cosmos 1818 3.6 18:24:53 10° SSW 18:30:13 63° ESE 18:34:52 14° NE
TELKOM 3 3.8 18:28:57 10° WSW 18:31:12 42° NNW 18:32:11 27° NNE
YAOGAN 1 3.0 18:30:04 10° SE 18:34:05 39° ENE 18:38:07 10° N
SAR-Lupe-4 3.8 18:31:27 14° NNE 18:34:19 44° E 18:37:45 10° S
Meteor 2-10 Rocket 3.5 18:29:22 10° N 18:34:52 75° E 18:40:07 10° SSE
Cosmos 1892 Rocket 3.8 18:30:44 10° SSW 18:35:03 70° W 18:39:23 10° N
H-2A R/B 4.1 18:32:34 10° N 18:36:23 29° WNW 18:40:07 10° SW
CSL-04 Rocket 4.3 18:33:24 10° SE 18:38:05 31° ENE 18:42:49 10° N
Helios 1A Rocket 3.5 18:35:18 10° SE 18:39:02 34° ENE 18:42:48 10° N
ATLAS 5 CENTAUR R/B 3.8 18:40:30 10° W 18:43:20 17° NW 18:46:22 10° N
Cosmos 1092 Rocket 4.2 18:37:51 10° SSE 18:43:41 44° E 18:49:29 10° NNE
SAR-Lupe-1 4.0 18:42:35 17° NNE 18:45:14 61° ESE 18:48:45 10° S
Iridium 4 Rocket 4.1 18:43:00 10° NNE 18:48:09 35° E 18:52:54 10° SE
MOS 1 Rocket 3.1 18:44:00 10° N 18:48:18 78° WNW 18:52:34 10° SSW
Meteor 2-1 Rocket 4.1 18:43:44 10° N 18:49:16 63° ENE 18:54:42 10° SSE
SKYMED 2 4.4 18:47:52 10° N 18:52:06 51° WNW 18:56:17 10° SSW
SJ 16-02 1.2 18:48:03 10° SSW 18:52:28 86° ESE 18:55:59 16° NNE
SJ-11-01 4.3 18:48:36 10° SSE 18:53:10 54° ENE 18:57:45 10° N
Cosmos 1937 Rocket 4.4 18:52:51 10° SSE 18:56:46 27° ESE 18:56:46 27° ESE
Cosmos 1538 Rocket 4.2 18:52:57 10° NNW 18:58:07 71° WSW 19:03:14 10° S
Aureole 3 2.5 18:55:17 10° N 18:58:42 72° E 19:01:42 10° SSE
NOSS 2-1 (E) 4.2 18:57:25 10° S 18:59:32 26° SSE 18:59:32 26° SSE
Nadezhda 4 Rocket 4.1 18:54:42 10° S 19:00:58 81° W 19:07:13 10° N
Cosmos 1455 2.1 18:59:15 10° N 19:03:05 89° E 19:06:54 10° S
X-37B 0.6 19:02:24 10° WSW 19:05:31 74° NNW 19:05:31 74° NNW
Cosmos 1703 3.1 19:02:32 10° S 19:06:23 68° E 19:07:02 55° NE
Cosmos 2058 Rocket 4.1 19:03:03 10° NNW 19:07:23 48° W 19:11:43 10° SSW
Cosmos 1340 3.9 19:03:53 10° SSE 19:05:49 27° SSE 19:05:49 27° SSE
ARGOS 3.0 19:11:17 10° SSE 19:16:35 71° ENE 19:21:57 10° N
ISS -2.7 19:14:54 10° W 19:17:57 38° NW 19:17:57 38° NW
Cosmos 44 3.2 19:13:29 10° SSW 19:18:08 67° ESE 19:18:46 60° ENE
ERS-2 3.8 19:16:43 10° N 19:20:00 32° WNW 19:23:16 10° SW
Lacrosse 5 1.7 19:18:42 10° NW 19:23:46 72° NE 19:24:15 66° E
CSL-04 Debris 4.0 19:21:30 10° SSE 19:26:54 88° ENE 19:32:19 10° NNW
Cosmos 1626 Rocket 4.2 19:23:30 10° SSW 19:27:46 55° W 19:31:13 16° N
CZ-2C R/B 2.6 19:27:19 44° NE 19:29:02 68° E 19:34:37 10° S
CZ-4 R/B 2.9 19:27:05 10° SSW 19:30:55 37° W 19:34:43 10° NNW
COSMOS 2455 4.4 19:27:08 10° WSW 19:32:25 31° NW 19:37:13 12° N
Cosmos 1328 4.5 19:28:24 10° S 19:31:21 48° SSW 19:31:21 48° SSW
NOSS 3-1 (C) 4.2 19:25:38 10° NNW 19:32:59 52° NE 19:34:39 46° E
Cosmos 990 Rocket 4.0 19:29:46 10° SSW 19:34:59 80° WNW 19:36:24 49° N
Cosmos 1844 4.4 19:29:56 10° SW 19:35:25 52° WNW 19:39:07 21° N
Cosmos 2026 Rocket 3.9 19:31:56 10° S 19:38:01 88° W 19:44:14 10° N
Cosmos 1833 Rocket 4.5 19:34:44 10° N 19:36:25 18° N 19:36:25 18° N
Cosmos 2082 Rocket 4.5 19:37:40 10° N 19:37:48 10° N 19:37:48 10° N
Meteor 2-19 Rocket 4.3 19:36:52 10° S 19:43:00 76° E 19:44:22 55° NNE
Hubble Space Telescope 3.3 19:42:35 10° SW 19:44:04 14° SSW 19:44:04 14° SSW
USA 229 DEB 4.2 19:42:51 10° NNW 19:49:18 47° NNE 19:49:18 47° NNE
USA 229 4.2 19:42:57 10° NNW 19:49:21 46° NNE 19:49:21 46° NNE
USA 267 3.1 19:51:34 68° ENE 19:52:28 83° SE 19:59:01 10° SW
Meteor 1-11 4.2 19:48:26 10° S 19:53:35 73° SSW 19:53:35 73° SSW
H-2A R/B 3.5 19:51:03 10° SSW 19:55:31 34° W 20:00:06 10° NNW
Cosmos 1844 Rocket 4.4 19:52:38 10° WSW 19:57:29 29° NW 20:01:07 16° N
Cosmos 1898 Rocket 4.1 19:58:41 10° SW 20:03:49 52° WNW 20:04:03 52° WNW
NOSS 3-1 (A) 4.4 19:58:12 10° NNW 20:04:26 49° NNE 20:04:26 49° NNE
Cosmos 2278 Rocket 3.9 20:00:31 10° S 20:02:22 21° S 20:02:22 21° S
Cosmos 1680 Rocket 4.2 20:02:03 10° NNW 20:07:03 52° W 20:07:03 52° W
USA 234 4.2 20:27:41 36° NNW 20:27:41 36° NNW 20:31:43 10° NW
